Location: C�an Torras
(41.5052°N, 1.9280°E)
Time: 18:24:57
(UTC+00:00)

Cosmos 2058 Rocket - Pass Details

Date: 20 January 2021
Orbit: 611 x 639 km, 82.5° (Epoch: 03 March)

Event Time Altitude Azimuth Distance (km) Brightness Sun altitude
Rises 17:22:56 0° 3° (N) 2,941 6.3 -5.9°
Reaches altitude 10° 17:25:28 10° 16° (NNE) 2,031 5.4 -6.3°
Maximum altitude 17:29:20 27° 74° (ENE) 1,219 4.0 -7.0°
Drops below altitude 10° 17:33:11 10° 133° (SE) 2,024 5.4 -7.7°
Sets 17:35:41 0° 146° (SE) 2,928 6.4 -8.1°
